カタログに戻る

ORBVIEW 1

MICROLAB

運用中科学LEO
NORAD 23547·PAYLOAD·🇺🇸 United States

打ち上げ Apr 3, 1995 から Vandenberg Space Force Base

Loading…

次のパス (今後24時間)

TLE

最新Source: Space-Track

元期: Sep 14, 2026, 07:35 UTC

1 23547U 95017C   26257.31609195  .00000967  00000-0  18235-3 0  9993
2 23547  69.9778  10.4579 0010474 213.4509 146.5974 14.67613501671368

AllMySatでORBVIEW 1をリアルタイム追跡

Download on the App Store